エケクルス彗星

174P/(60558) Echeclus (2015)

English version
Home page
Updated on September 3, 2011

---------------------------------------------------------------------

・ プロフィール

符号 174P/(60558) 2000 EC98
発見日 2000年3月3日
発見光度 21.0等
発見者 J. V. Scotti, A. E. Gleason, J. L. Montani, M. T. Read (Steward Observatory, Kitt Peak)

・ 写真集

・ 軌道要素

The following orbital elements are taken from MPO143038

Epoch 2010 July 23.0 TT = JDT 2455400.5                 MPC
M 311.52691              (2000.0)            P               Q
n   0.02799477     Peri.  162.68007     +0.91420632     +0.40515564
a  10.7419917      Node   173.39931     -0.38019791     +0.86492780
e   0.4579912      Incl.    4.34148     -0.14027246     +0.29622425
P  35.2            H    9.0           G   0.15           U   0
From 189 observations at 10 oppositions, 1979-2008, mean residual 0".51.

・ 星図

・ 光度変化

        H = 9.5  G = 0.15                          [     ,-3400]  (              〜2005年12月30日)
        m1 = -101 + 5 logΔ + 135 log r(t + 4000)  [-3400,-3050]  (2005年12月30日〜2006年12月15日)
        H = 9.5  G = 0.15                          [-3050,-1429]  (2006年12月15日〜2011年 5月24日)
        m1 =  -78 + 5 logΔ + 100 log r(t + 2500)  [-1429,-1115]  (2011年 5月24日〜2012年 4月 2日)
        H = 9.5  G = 0.15                          [-1115,     ]  (2012年 4月 2日〜              )

        ※ 灰色の曲線は、H = 9.5  G = 0.15 の光度曲線です。

---------------------------------------------------------------------

軌道要素はMPCのEphemerides and Orbital Elementsに掲載されたものです。
星図は StellaNavigator Ver.2.0 for Windows (アストロアーツ編著 / アスキー出版局刊) で作成したものです。
光度グラフはComet for Windowsで作成したものです。

---------------------------------------------------------------------

Copyright(C) Seiichi Yoshida (comet@aerith.net). All rights reserved.